Zurück zum Katalog

ONEWEB-0426

AktivKommunikationPO
NORAD 50498·PAYLOAD·🇬🇧 United Kingdom

Gestartet Dec 27, 2021 von Baikonur Cosmodrome

Loading…

Nächste Überflüge (nächste 24 Stunden)

TLE

AktuellSource: CelesTrak SupGP

Epoche: Sep 14, 2026, 13:20 UTC

1 50498C 21132AF  26257.55571016  .00003607  00000+0  91589-2 0  2573
2 50498  87.9176 317.6914 0002467 112.6612 332.0522 13.18686669    17

Verfolge ONEWEB-0426 in Echtzeit mit AllMySat

Download on the App Store